Weather in Kotlovo

Russia / Kostroma Oblast     57°48′26″N   42°53′45″E
temp.,
°C
wind,
m/s
gust,
m/s
humid.,
%
clouds,
%
prec.,
mm/h
press.,
hPa
HPBL,
m
26 july, mon
mon2600:00+15wnw1157100 0.0 102120
03:00+13w245973 0.0 102170
06:00+15wsw266197 0.0 1021172
09:00+21w354212 0.0 1021821
12:00+24w453348 0.0 10202553
15:00+23wnw473889 0.0 10192193
18:00+20w265492 0.0 1019217
21:00+18wsw276171 0.0 1019163
27 july, tue
tue2700:00+14w3108046 0.1 1019199
03:00+12nw27935 0.1 1020152
06:00+15nw27870 0.0 1020221
09:00+20nnw35524 0.0 10201135
12:00+24nw483747 0.0 10192459
15:00+25nnw593545 0.0 10182784
18:00+23n255199 0.0 1017731
21:00+18e116849 0.0 101711
28 july, wed
wed2800:00+13wnw118940 0.1 101814
03:00+13wnw229156 0.1 101834
06:00+16w128139 0.0 101786
09:00+22wnw015428 0.0 1016685
12:00+26w24378 0.0 10142391
15:00+27w463248 0.0 10122888
18:00+26wsw244640 0.0 1010364
21:00+18sw227430 0.1 101033
29 july, thu
thu2900:00+18w227545 0.1 100836
03:00+14w259870 0.3 1008117
06:00+16wsw269063 0.0 1007193
09:00+20sw357057 0.0 1006650
12:00+24s455695 0.0 10051406
15:00+23s4458100 0.1 10041280
18:00+21ssw347576 0.2 1003644
21:00+16sw269761 0.3 1003140
30 july, fri
fri3000:00+16wsw279886 0.1 1003229
03:00+15wsw3119826 0.2 1003399
06:00+16w412910 0.0 1004517
09:00+22wnw586011 0.0 10051097
12:00+26w69402 0.0 10052323
15:00+26wnw610320 0.0 10052541
18:00+25nw484219 0.0 10061530
21:00+18w22620 0.0 100724